LPE2423 SBPA-SPJC

Flight info

Callsign LPE2423
Flight time N/A
Altitude 30000
Route NOBEL UL216 FOZ UM548 ASOXI
Aircraft A21N/M-SDE3FGHIRWY/LB1

Departure

Time 2026-04-29 13:51
Airport Porto Alegre-Salgado Filho International Airport (SBPA)

Arrival

Time N/A
Airport Jorge Chávez International Airport (SPJC)
Time Latitude Longitude Altitude Speed Heading
2026-04-29 13:35 -29.99104 -51.17715 22 ft 0 kts 13°
2026-04-29 13:39 -29.99113 -51.17717 22 ft 0 kts 13°
2026-04-29 13:40 -29.99124 -51.17720 22 ft 2 kts 360°
2026-04-29 13:40 -29.99139 -51.17717 22 ft 2 kts 339°
2026-04-29 13:40 -29.99152 -51.17709 22 ft 2 kts 319°
2026-04-29 13:40 -29.99162 -51.17696 22 ft 2 kts 300°
2026-04-29 13:41 -29.99167 -51.17679 22 ft 2 kts 279°
2026-04-29 13:41 -29.99168 -51.17670 22 ft 1 kts 268°
2026-04-29 13:41 -29.99168 -51.17666 22 ft 0 kts 270°
2026-04-29 13:44 -29.99168 -51.17667 22 ft 0 kts 271°
2026-04-29 13:44 -29.99168 -51.17679 22 ft 2 kts 271°
2026-04-29 13:44 -29.99168 -51.17701 22 ft 3 kts 271°
2026-04-29 13:45 -29.99172 -51.17733 21 ft 4 kts 244°
2026-04-29 13:45 -29.99203 -51.17763 21 ft 7 kts 210°
2026-04-29 13:45 -29.99241 -51.17811 20 ft 9 kts 248°
2026-04-29 13:45 -29.99248 -51.17891 20 ft 10 kts 276°
2026-04-29 13:46 -29.99224 -51.17972 20 ft 10 kts 293°
2026-04-29 13:46 -29.99208 -51.18052 21 ft 10 kts 259°
2026-04-29 13:46 -29.99235 -51.18130 20 ft 10 kts 241°
2026-04-29 13:46 -29.99276 -51.18183 19 ft 0 kts 212°
2026-04-29 13:47 -29.99282 -51.18187 19 ft 1 kts 212°
2026-04-29 13:48 -29.99299 -51.18200 19 ft 3 kts 211°
2026-04-29 13:48 -29.99322 -51.18214 19 ft 3 kts 205°
2026-04-29 13:48 -29.99345 -51.18226 19 ft 3 kts 205°
2026-04-29 13:48 -29.99366 -51.18238 20 ft 3 kts 205°
2026-04-29 13:49 -29.99386 -51.18249 20 ft 3 kts 205°
2026-04-29 13:49 -29.99405 -51.18259 20 ft 2 kts 205°
2026-04-29 13:49 -29.99423 -51.18259 20 ft 2 kts 150°
2026-04-29 13:49 -29.99436 -51.18232 20 ft 5 kts 101°
2026-04-29 13:50 -29.99439 -51.18179 19 ft 11 kts 93°
2026-04-29 13:50 -29.99447 -51.17803 18 ft 83 kts 92°
2026-04-29 13:50 -29.99466 -51.16898 21 ft 143 kts 90°
2026-04-29 13:50 -29.99485 -51.15619 304 ft 162 kts 90°
2026-04-29 13:51 -29.99505 -51.14359 946 ft 156 kts 90°
2026-04-29 13:51 -29.99535 -51.12999 1369 ft 168 kts 91°
2026-04-29 13:51 -29.99568 -51.11508 1902 ft 179 kts 91°
2026-04-29 13:51 -29.99602 -51.09925 2321 ft 191 kts 91°
2026-04-29 13:52 -29.99637 -51.08207 2608 ft 205 kts 91°
2026-04-29 13:52 -29.99670 -51.06340 2881 ft 221 kts 88°
2026-04-29 13:52 -29.99193 -51.04441 3149 ft 237 kts 51°
2026-04-29 13:52 -29.97691 -51.03241 3467 ft 253 kts 13°
2026-04-29 13:53 -29.95781 -51.02966 3994 ft 261 kts
2026-04-29 13:53 -29.93902 -51.02197 4667 ft 262 kts 27°
2026-04-29 13:53 -29.92183 -51.01057 5350 ft 264 kts 31°
2026-04-29 13:53 -29.90499 -50.99847 5989 ft 266 kts 31°
2026-04-29 13:54 -29.88758 -50.98590 6624 ft 269 kts 31°
2026-04-29 13:54 -29.87040 -50.97361 7280 ft 270 kts 31°
2026-04-29 13:54 -29.85323 -50.96136 7897 ft 272 kts 31°
2026-04-29 13:54 -29.83606 -50.94911 8448 ft 276 kts 30°
2026-04-29 13:55 -29.81824 -50.93646 9007 ft 279 kts 30°
2026-04-29 13:55 -29.79981 -50.92448 9613 ft 279 kts 20°
2026-04-29 13:55 -29.77911 -50.91874 10129 ft 279 kts
2026-04-29 13:55 -29.75851 -50.91859 10479 ft 288 kts 356°
2026-04-29 13:56 -29.73814 -50.91927 10707 ft 300 kts 356°
2026-04-29 13:56 -29.71693 -50.92001 10932 ft 312 kts 356°
2026-04-29 13:56 -29.69494 -50.92068 11153 ft 324 kts 356°
2026-04-29 13:56 -29.67204 -50.92129 11513 ft 330 kts 356°
2026-04-29 13:57 -29.64879 -50.92183 12018 ft 332 kts 356°
2026-04-29 13:57 -29.62474 -50.92237 12533 ft 334 kts 356°
2026-04-29 13:57 -29.59935 -50.92294 13030 ft 337 kts 356°
2026-04-29 13:57 -29.58319 -50.92330 13333 ft 339 kts 356°
2026-04-29 13:58 -29.54890 -50.92405 13967 ft 342 kts 355°
2026-04-29 13:58 -29.52295 -50.92461 14428 ft 345 kts 355°
2026-04-29 13:58 -29.49770 -50.92516 14861 ft 348 kts 355°
2026-04-29 13:58 -29.47267 -50.92572 15095 ft 350 kts 355°
2026-04-29 13:59 -29.44699 -50.92628 15098 ft 350 kts 355°
2026-04-29 13:59 -29.42126 -50.92683 15100 ft 350 kts 355°
2026-04-29 13:59 -29.39484 -50.92740 15101 ft 350 kts 355°
2026-04-29 13:59 -29.36824 -50.92798 15101 ft 350 kts 355°
2026-04-29 14:00 -29.34314 -50.92852 15102 ft 350 kts 355°
2026-04-29 14:00 -29.31828 -50.93095 15086 ft 345 kts 342°
2026-04-29 14:00 -29.29639 -50.94231 15095 ft 340 kts 322°
2026-04-29 14:00 -29.27976 -50.96162 15099 ft 337 kts 302°
2026-04-29 14:01 -29.26886 -50.98562 15110 ft 337 kts 294°
2026-04-29 14:01 -29.25777 -51.00945 15168 ft 342 kts 302°
2026-04-29 14:01 -29.24411 -51.03193 15591 ft 344 kts 305°
2026-04-29 14:01 -29.22993 -51.05439 16086 ft 343 kts 304°
2026-04-29 14:02 -29.21483 -51.07854 16483 ft 346 kts 304°
2026-04-29 14:02 -29.19984 -51.10279 16905 ft 348 kts 304°
2026-04-29 14:02 -29.18556 -51.12606 17298 ft 350 kts 303°
2026-04-29 14:02 -29.17167 -51.14879 17670 ft 352 kts 303°
2026-04-29 14:03 -29.15755 -51.17194 18039 ft 354 kts 303°
2026-04-29 14:03 -29.14353 -51.19499 18389 ft 356 kts 303°
2026-04-29 14:03 -29.12847 -51.21974 18792 ft 356 kts 303°
2026-04-29 14:03 -29.11289 -51.24535 19218 ft 357 kts 303°
2026-04-29 14:04 -29.09764 -51.27041 19623 ft 357 kts 303°
2026-04-29 14:04 -29.08228 -51.29565 20020 ft 357 kts 303°
2026-04-29 14:04 -29.06742 -51.32006 20397 ft 358 kts 303°
2026-04-29 14:04 -29.05332 -51.34322 20745 ft 358 kts 303°
2026-04-29 14:05 -29.03902 -51.36669 21087 ft 358 kts 302°
2026-04-29 14:05 -29.02482 -51.38999 21417 ft 359 kts 302°
2026-04-29 14:05 -29.01062 -51.41326 21741 ft 359 kts 302°
2026-04-29 14:05 -28.99529 -51.43839 21985 ft 362 kts 302°
2026-04-29 14:06 -28.98088 -51.46199 22166 ft 366 kts 302°
2026-04-29 14:06 -28.96621 -51.48600 22454 ft 366 kts 302°
2026-04-29 14:06 -28.95158 -51.50994 22764 ft 366 kts 302°
2026-04-29 14:06 -28.93659 -51.53443 23062 ft 366 kts 302°
2026-04-29 14:07 -28.92146 -51.55915 23353 ft 366 kts 302°
2026-04-29 14:07 -28.90554 -51.58514 23648 ft 367 kts 302°
2026-04-29 14:07 -28.88934 -51.61158 23944 ft 367 kts 302°
2026-04-29 14:07 -28.87319 -51.63790 24232 ft 367 kts 302°
2026-04-29 14:08 -28.85696 -51.66439 24512 ft 368 kts 303°
2026-04-29 14:08 -28.84074 -51.69084 24815 ft 368 kts 303°
2026-04-29 14:08 -28.82453 -51.71726 25123 ft 367 kts 303°
2026-04-29 14:08 -28.80842 -51.74348 25421 ft 367 kts 303°
2026-04-29 14:09 -28.79223 -51.76981 25710 ft 367 kts 304°
2026-04-29 14:09 -28.77597 -51.79622 26002 ft 366 kts 304°
2026-04-29 14:09 -28.75995 -51.82222 26393 ft 363 kts 304°
2026-04-29 14:09 -28.74406 -51.84802 26712 ft 361 kts 304°
2026-04-29 14:10 -28.72839 -51.87344 26963 ft 361 kts 305°
2026-04-29 14:10 -28.71268 -51.89888 27194 ft 362 kts 305°
2026-04-29 14:10 -28.69695 -51.92437 27422 ft 362 kts 304°
2026-04-29 14:10 -28.68143 -51.94949 27630 ft 362 kts 305°
2026-04-29 14:11 -28.66682 -51.97311 27866 ft 361 kts 305°
2026-04-29 14:11 -28.65244 -51.99639 28056 ft 362 kts 306°
2026-04-29 14:11 -28.63801 -52.01969 28262 ft 361 kts 306°
2026-04-29 14:11 -28.62353 -52.04310 28427 ft 362 kts 306°
2026-04-29 14:12 -28.60891 -52.06678 28618 ft 362 kts 306°
2026-04-29 14:12 -28.59461 -52.08987 28828 ft 362 kts 307°
2026-04-29 14:12 -28.58002 -52.11335 29026 ft 361 kts 307°
2026-04-29 14:12 -28.56555 -52.13665 29196 ft 362 kts 307°
2026-04-29 14:13 -28.55101 -52.16005 29391 ft 361 kts 307°
2026-04-29 14:13 -28.53662 -52.18319 29576 ft 361 kts 307°
2026-04-29 14:13 -28.52219 -52.20639 29770 ft 360 kts 307°
2026-04-29 14:13 -28.50765 -52.22975 29944 ft 360 kts 307°
2026-04-29 14:14 -28.49328 -52.25285 30069 ft 361 kts 307°
2026-04-29 14:14 -28.47884 -52.27602 30068 ft 360 kts 307°
2026-04-29 14:14 -28.44980 -52.32259 30076 ft 360 kts 307°
2026-04-29 14:15 -28.41921 -52.37107 30068 ft 360 kts 309°
2026-04-29 14:15 -28.38328 -52.41632 30074 ft 360 kts 316°
2026-04-29 14:16 -28.34142 -52.45542 30070 ft 361 kts 322°
2026-04-29 14:16 -28.29641 -52.49031 30065 ft 361 kts 323°
2026-04-29 14:17 -28.25343 -52.52342 30063 ft 361 kts 324°
2026-04-29 14:17 -28.21018 -52.55656 30060 ft 360 kts 323°
2026-04-29 14:18 -28.16631 -52.59002 30064 ft 360 kts 324°
2026-04-29 14:18 -28.12297 -52.62304 30066 ft 360 kts 323°
2026-04-29 14:19 -28.07898 -52.65645 30076 ft 361 kts 324°
2026-04-29 14:19 -28.03721 -52.68821 30068 ft 361 kts 324°
2026-04-29 14:20 -27.99368 -52.72126 30074 ft 361 kts 324°
2026-04-29 14:20 -27.94849 -52.75554 30076 ft 360 kts 324°
2026-04-29 14:21 -27.90577 -52.78788 30075 ft 360 kts 324°
2026-04-29 14:21 -27.86433 -52.81924 30077 ft 360 kts 324°
2026-04-29 14:22 -27.82022 -52.85259 30076 ft 361 kts 324°
2026-04-29 14:22 -27.77465 -52.88700 30077 ft 361 kts 324°
2026-04-29 14:23 -27.72935 -52.92117 30077 ft 361 kts 324°
2026-04-29 14:23 -27.68374 -52.95561 30077 ft 361 kts 324°
2026-04-29 14:24 -27.63922 -52.98968 30077 ft 361 kts 324°
2026-04-29 14:24 -27.59401 -53.02418 30076 ft 361 kts 324°
2026-04-29 14:25 -27.54844 -53.05795 30076 ft 361 kts 324°
2026-04-29 14:25 -27.50239 -53.09195 30076 ft 362 kts 324°
2026-04-29 14:26 -27.45778 -53.12488 30076 ft 362 kts 324°
2026-04-29 14:26 -27.41581 -53.15583 30077 ft 362 kts 324°
2026-04-29 14:27 -27.37386 -53.18675 30076 ft 362 kts 324°
2026-04-29 14:28 -27.31072 -53.23323 30077 ft 362 kts 324°
2026-04-29 14:28 -27.26855 -53.26424 30077 ft 362 kts 324°
2026-04-29 14:29 -27.26157 -53.26942 30076 ft 362 kts 324°